Погода в Сайлыге

Россия / Республика Тыва     51°07′19″N   93°41′00″E
темп.,
°C
ветер,
м/с
пор.,
м/с
влажн.,
%
обл.,
%
осадки,
мм/ч
давл.,
гПа
погр.,
м
5 декабря, вс
вс501:00−12ююз228054 0.0 103411
04:00−12ююз22835 0.0 103611
07:00−11ю32790 0.0 103714
10:00−10ю44761 0.0 103678
13:00−7ю4572100 0.0 1034192
16:00−10ю5680100 0.0 1035131
19:00−12ю678174 0.0 1035109
22:00−11ю5674100 0.0 103497
6 декабря, пн
пн601:00−12ю5675100 0.0 103388
04:00−12ю447414 0.0 103258
07:00−13ю447313 0.0 103246
10:00−10ю456999 0.0 103181
13:00−7ю3462100 0.0 1028156
16:00−10ю4472100 0.0 103051
19:00−11ю4463100 0.0 103042
22:00−11ю446571 0.0 103043
7 декабря, вт
вт701:00−12ю44666 0.0 102946
04:00−12ю446420 0.0 102849
07:00−12ю557034 0.0 102761
10:00−10ю456299 0.0 102597
13:00−7ю3458100 0.0 1023160
16:00−9ю3369100 0.0 102459
19:00−9ю2268100 0.0 102434
22:00−9ю2268100 0.0 102430
8 декабря, ср
ср801:00−11ю327685 0.0 102616
04:00−12юз118454 0.0 102710
07:00−15юз0197100 0.0 103314
10:00−10ссз018048 0.0 103037
13:00−8с2178100 0.1 1029220
16:00−12юв019668 0.0 10309
19:00−12ю2292100 0.1 103012
22:00−10ююз1193100 0.1 102914
9 декабря, чт
чт901:00−12ссз1196100 0.7 103062
04:00−14ссз2395100 0.6 1032116
07:00−14с3497100 1.3 1035141
10:00−14ссз349798 0.4 1037220
13:00−14с348885 0.4 1038534
16:00−15с2310098 0.1 104179
19:00−18ю129998 0.1 104414
22:00−20ю22957 0.0 104617